STARLINK-1494, 45760

Orbit data source: Space-Track

STARLINK-1494, 45760 is a payload satellite owned by SpaceX/Seattle (US) in LEO that was launched on Sat, 13 Jun 2020 UTC via an FALCON 9 launch vehicle from the Air Force Eastern Test Range (AFETR). Payload-class satellites include a variety of spacecraft equipped with specific instruments for various scientific and technological missions. These include communications satellites like Starlink; space stations such as the ISS; scientific satellites like the Hubble; Earth observation satellites from companies like Planet Labs, Umbra, and HawkEye 360; GPS; miniature CubeSats for education and research; and military/defense satellites.

Loading next visibility...
Identifier
45760, 2020-038AG
Orbit
LEO
Country
Flag of USUS
Related business
Manufacturer
SpaceX/Seattle
Mission
Partially operational Commercial Communications
Bus & Motor
STARLINK, Unknown motor
Mass
260 kg wet, ~248 kg dry
Launch date (UTC)
2020-06-13 (5 years ago)
Launch vehicle
FALCON 9
Launch site
Air Force Eastern Test Range (AFETR)
Object type
Payload
Rocket body
Debris
Shape & HBR
Box + 1 Pan, 10.1 m
Radar Cross Section
13.562 m², Large (>1 m²)

Expand to show TLE details & history
Last TLE update: 1 day ago

TLE from 1 day ago
0 STARLINK-1494
1 45760U 20038AG  25342.11652722  .00045196  00000-0  66579-3 0  9998
2 45760  53.0524 240.3435 0005533 123.1249 237.0293 15.54973006303060
Epoch: 2025-12-08T02:47Z
TLE epoch observation values (Epoch: 2025-12-08T02:47:47.951Z)
Latitude
-0.00002°
Longitude
121.27352°
Altitude
405.172 km
Speed
7.668 km/s
True Right ascension
16h 01m 22s
True Declination
0° 00' 00"
Sunlit
Object was in daylight at epoch
Visualization orbit readout
Latitude
Unknown
Longitude
Unknown
Altitude
Unknown
Speed
Unknown
Apparent Right ascension
Unknown
Apparent Declination
Unknown
Sunlit
N/A
Visualization observer readout
Local Sidereal Time
01:03:59
Azimuth
Unknown
Elevation
Unknown
Doppler factor
Unknown
Orbital elements
Apogee altitude
406.26 km
Perigee altitude
398.756 km
Semi-major axis
6,780.645 km
Eccentricity
0.00055
Inclination
53.0524°
RAAN
240.3435°
Arg. of periapsis
123.1249°
True anomaly
236.97613°
Mean anomaly
237.0293°
Eccentric anomaly
237.00271°
Mean motion
3.8872 °/min
Orbital period
92.61 mins
BSTAR
0.00066579
Loading maneuver chart data...
Computing Atmospheric mass density...
Loading historical data...
Loading historical data...
Loading historical data...
Loading historical data...
Loading historical data...
Loading historical data...
Loading historical data...

Documentation

Showing up to 5 results
|